Location: Unspecified
(49.8670°N, 0.0000°E)
Time: 19:32:32
(UTC+00:00)

S-56A Canister/Altair - Pass Details

Date: 20 June 2019
Orbit: 632 x 2500 km, 38.9° (Epoch: 18 July)

Event Time Altitude Azimuth Distance (km) Brightness Sun altitude
Rises 14:38:24 0° 198° (SSW) 5,172 12.2 49.7°
Reaches altitude 10° 14:44:37 10° 174° (S) 3,700 11.3 48.8°
Maximum altitude 14:48:10 13° 151° (SSE) 3,191 10.8 48.2°
Drops below altitude 10° 14:51:16 10° 127° (SE) 3,138 10.6 47.8°
Sets 14:55:33 0° 100° (E) 3,731 10.7 47.1°
